Date String (YYYY-MM-DD hh:mm:ss) UTC,Instrument flags,Ambient pressure (hPa),Sample flow (lpm),Bypass flow (lpm),Sample temperature (°C),Ambient temperature (°C),ASC tube jacket temperature (°C),LED temperature (°C),Box temperature (°C),Sample RH (%),Span deviation,Mass concentration (μg/m³),Mass concentration (μg/m³),Mass concentration (μg/m³)
DateTimeUTC,F1_M11,P_M11,Q1_M11,Q2_M11,T1_M11,T2_M11,T3_M11,T4_M11,T5_M11,U1_M11,ZSPAN_M11,X0_M11,X2_M11,X1_M11
2022-10-21 01:00:00,,0822.8,5.02,0.00,29.7,26.8,00.0,38.5,31.4,08.1,0000.0,0005.20,0002.00,0001.27
2022-10-21 01:01:00,,0822.7,5.02,0.00,29.6,27.1,00.0,38.4,31.4,08.1,0000.0,0004.94,0001.96,0001.26
2022-10-21 01:02:00,,0822.8,5.00,0.00,29.6,27.4,00.0,38.4,31.4,08.1,0000.0,0004.64,0001.90,0001.25
2022-10-21 01:03:00,,0822.8,5.00,0.00,29.6,27.7,00.0,38.4,31.5,08.2,0000.0,0005.61,0001.90,0001.25
2022-10-21 01:04:00,,0822.8,5.00,0.00,29.6,27.9,00.0,38.4,31.5,08.2,0000.0,0006.48,0001.92,0001.25
2022-10-21 01:05:00,,0822.8,5.02,0.00,29.6,28.0,00.0,38.4,31.5,08.2,0000.0,0006.95,0001.87,0001.23
2022-10-21 01:06:00,,0822.8,5.00,0.00,29.6,28.2,00.0,38.4,31.5,08.2,0000.0,0007.55,0001.90,0001.24
2022-10-21 01:07:00,,0822.8,4.99,0.00,29.7,28.3,00.0,38.5,31.5,08.1,0000.0,0007.75,0001.92,0001.24
2022-10-21 01:08:00,,0822.8,5.02,0.00,29.7,28.4,00.0,38.5,31.6,08.1,0000.0,0007.99,0001.90,0001.25
2022-10-21 01:09:00,,0822.9,4.99,0.00,29.7,28.4,00.0,38.5,31.6,08.1,0000.0,0008.32,0001.90,0001.23
2022-10-21 01:10:00,,0822.9,5.00,0.00,29.7,28.5,00.0,38.5,31.6,08.1,0000.0,0008.37,0001.94,0001.23
2022-10-21 01:11:00,,0822.8,5.01,0.00,29.7,28.6,00.0,38.5,31.7,08.1,0000.0,0008.48,0002.01,0001.24
2022-10-21 01:12:00,,0822.9,4.98,0.00,29.8,28.6,00.0,38.5,31.7,08.1,0000.0,0008.80,0002.07,0001.25
2022-10-21 01:13:00,,0822.9,5.00,0.00,29.8,28.6,00.0,38.5,31.7,08.1,0000.0,0009.19,0002.09,0001.26
2022-10-21 01:14:00,,0822.9,5.03,0.00,29.8,28.7,00.0,38.6,31.7,08.1,0000.0,0008.63,0002.09,0001.26
2022-10-21 01:15:00,,0822.9,5.01,0.00,29.8,28.7,00.0,38.6,31.8,08.1,0000.0,0007.87,0002.07,0001.25
2022-10-21 01:16:00,,0822.9,4.99,0.00,29.9,28.7,00.0,38.6,31.8,08.1,0000.0,0007.53,0002.04,0001.26
2022-10-21 01:17:00,,0822.9,5.01,0.00,29.9,28.7,00.0,38.6,31.9,08.1,0000.0,0007.66,0002.01,0001.26
2022-10-21 01:18:00,,0822.9,4.99,0.00,29.9,27.5,00.0,38.6,31.8,08.0,0000.0,0007.49,0001.97,0001.26
2022-10-21 01:19:00,,0822.9,4.99,0.00,29.9,26.5,00.0,38.5,31.6,08.1,0000.0,0007.10,0002.01,0001.26
2022-10-21 01:20:00,,0822.9,5.02,0.00,29.8,26.5,00.0,38.5,31.5,08.1,0000.0,0006.78,0002.05,0001.26
2022-10-21 01:21:00,,0822.9,4.97,0.00,29.7,26.7,00.0,38.5,31.3,08.1,0000.0,0007.04,0002.11,0001.26
2022-10-21 01:22:00,,0822.8,5.02,0.00,29.6,27.0,00.0,38.5,31.4,08.1,0000.0,0007.02,0002.08,0001.25
2022-10-21 01:23:00,,0822.9,5.00,0.00,29.6,27.3,00.0,38.5,31.4,08.1,0000.0,0006.61,0002.05,0001.23
2022-10-21 01:24:00,,0822.9,4.99,0.00,29.6,27.6,00.0,38.5,31.4,08.2,0000.0,0006.17,0002.08,0001.23
2022-10-21 01:25:00,,0822.9,5.01,0.00,29.6,27.8,00.0,38.5,31.4,08.2,0000.0,0006.04,0002.07,0001.24
2022-10-21 01:26:00,,0822.9,4.99,0.00,29.6,27.9,00.0,38.5,31.5,08.2,0000.0,0005.88,0002.05,0001.24
2022-10-21 01:27:00,,0822.8,4.99,0.00,29.6,28.1,00.0,38.5,31.5,08.2,0000.0,0006.22,0002.13,0001.24
2022-10-21 01:28:00,,0822.8,5.00,0.00,29.6,28.2,00.0,38.5,31.5,08.2,0000.0,0005.73,0002.15,0001.25
2022-10-21 01:29:00,,0822.8,5.00,0.00,29.6,28.2,00.0,38.5,31.5,08.2,0000.0,0005.12,0002.12,0001.24
2022-10-21 01:30:00,,0822.8,4.99,0.00,29.7,28.3,00.0,38.5,31.6,08.2,0000.0,0005.27,0002.14,0001.25
2022-10-21 01:31:00,,0822.8,5.01,0.00,29.7,28.4,00.0,38.5,31.6,08.2,0000.0,0005.67,0002.08,0001.24
2022-10-21 01:32:00,,0822.9,5.00,0.00,29.7,28.4,00.0,38.5,31.6,08.1,0000.0,0006.77,0002.04,0001.24
2022-10-21 01:33:00,,0822.8,4.99,0.00,29.7,28.5,00.0,38.5,31.7,08.2,0000.0,0006.84,0002.03,0001.25
2022-10-21 01:34:00,,0822.9,5.01,0.00,29.7,28.5,00.0,38.5,31.7,08.2,0000.0,0007.14,0002.05,0001.26
2022-10-21 01:35:00,,0822.9,4.99,0.00,29.8,28.6,00.0,38.5,31.7,08.2,0000.0,0007.38,0002.05,0001.27
2022-10-21 01:36:00,,0822.9,5.02,0.00,29.8,28.6,00.0,38.6,31.8,08.1,0000.0,0007.74,0002.07,0001.28
2022-10-21 01:37:00,,0822.9,5.00,0.00,29.8,28.6,00.0,38.6,31.8,08.1,0000.0,0007.78,0002.13,0001.28
2022-10-21 01:38:00,,0822.8,5.01,0.00,29.8,28.7,00.0,38.6,31.7,08.1,0000.0,0008.26,0002.12,0001.28
2022-10-21 01:39:00,,0822.9,4.99,0.00,29.9,28.7,00.0,38.6,31.8,08.1,0000.0,0008.85,0002.08,0001.29
2022-10-21 01:40:00,,0822.9,4.97,0.00,29.9,28.7,00.0,38.6,31.8,08.1,0000.0,0008.90,0002.12,0001.30
2022-10-21 01:41:00,,0822.9,5.01,0.00,29.9,28.7,00.0,38.7,31.8,08.2,0000.0,0008.84,0002.10,0001.31
2022-10-21 01:42:00,,0822.9,4.98,0.00,29.9,28.4,00.0,38.7,31.8,08.2,0000.0,0008.50,0002.10,0001.32
2022-10-21 01:43:00,,0822.9,5.01,0.00,29.9,26.9,00.0,38.6,31.7,08.1,0000.0,0008.17,0002.19,0001.34
2022-10-21 01:44:00,,0822.9,5.00,0.00,29.8,26.2,00.0,38.5,31.6,08.2,0000.0,0008.20,0002.19,0001.35
2022-10-21 01:45:00,,0822.9,5.01,0.00,29.8,26.4,00.0,38.5,31.4,08.2,0000.0,0007.98,0002.16,0001.36
2022-10-21 01:46:00,,0822.9,5.02,0.00,29.7,26.8,00.0,38.5,31.4,08.3,0000.0,0007.72,0002.15,0001.36
2022-10-21 01:47:00,,0822.9,4.98,0.00,29.7,27.1,00.0,38.5,31.4,08.3,0000.0,0007.91,0002.13,0001.36
2022-10-21 01:48:00,,0822.9,5.01,0.00,29.6,27.3,00.0,38.5,31.4,08.3,0000.0,0007.92,0002.07,0001.37
2022-10-21 01:49:00,,0822.9,4.99,0.00,29.6,27.6,00.0,38.5,31.4,08.3,0000.0,0007.14,0002.03,0001.36
2022-10-21 01:50:00,,0822.9,5.02,0.00,29.6,27.8,00.0,38.5,31.4,08.4,0000.0,0005.91,0002.02,0001.34
2022-10-21 01:51:00,,0822.9,4.99,0.00,29.6,27.9,00.0,38.5,31.5,08.4,0000.0,0006.79,0001.98,0001.33
2022-10-21 01:52:00,,0822.9,5.00,0.00,29.6,28.0,00.0,38.5,31.5,08.4,0000.0,0006.71,0001.99,0001.32
2022-10-21 01:53:00,,0822.9,5.00,0.00,29.6,28.1,00.0,38.5,31.5,08.3,0000.0,0006.85,0002.04,0001.33
2022-10-21 01:54:00,,0823.0,5.01,0.00,29.6,28.2,00.0,38.5,31.5,08.3,0000.0,0007.29,0001.92,0001.31
2022-10-21 01:55:00,,0822.9,5.01,0.00,29.7,28.3,00.0,38.5,31.6,08.3,0000.0,0007.56,0001.89,0001.31
2022-10-21 01:56:00,,0823.0,4.98,0.00,29.7,28.4,00.0,38.5,31.6,08.4,0000.0,0007.70,0001.92,0001.31
2022-10-21 01:57:00,,0823.0,4.99,0.00,29.7,28.4,00.0,38.5,31.6,08.4,0000.0,0007.64,0001.90,0001.31
2022-10-21 01:58:00,,0823.0,4.99,0.00,29.7,28.4,00.0,38.5,31.6,08.4,0000.0,0007.07,0001.91,0001.32
2022-10-21 01:59:00,,0823.0,5.01,0.00,29.7,28.5,00.0,38.5,31.7,08.3,0000.0,0006.94,0001.90,0001.32
